Flag Weather past 2 weeks in Wilmington, Delaware, U.S.A.

Now
36 °F

Sunny.


Feels Like: 27 °F
Forecast: 27 / 37 °F
Wind: 15 mph from Northwest

Location: New Castle County Airport

Current Time: Nov 28, 2014 at 9:30:31 AM

Latest Report: Nov 28, 2014 at 8:51 AM


Visibility: 10 mi

Pressure: 30.26 "Hg

Humidity: 57%

Dew point: 22 °F

Location of WilmingtonLocation

Historic Weather in Wilmington — Graph

°F

Wilmington temperature yesterday

Maximum temperature yesterday: 41 °F (at 12:51 PM)
Minimum temperature yesterday: 30 °F (at 10:51 PM)
Average temperature yesterday: 36 °F

Past Weeks' High & Low Weather Summary

 TemperatureHumidityPressure
High72 °F (Nov 24, 11:04 AM)97% (Nov 17, 9:51 AM)30.55 "Hg (Nov 17, 9:51 AM)
Low20 °F (Nov 19, 6:51 AM)29% (Nov 18, 2:51 PM)29.54 "Hg (Nov 17, 3:51 PM)
Average40 °F61%30.10 "Hg
* Reported Nov 13 7:51 AM — Nov 28 7:51 AM, Wilmington, Weather by CustomWeather, © 2014

Note: Actual official high and low records may vary slightly from our data, if they occured in-between our weather recording intervals... More about our weather records

Advertising

Wilmington weather history for previous 24 hours

 ConditionsComfort  
Time TempWeatherWind HumidityBarometerVisibility
7:51 AM
Nov 28
33 °FSunny.12 mph63%30.24 "Hg10 mi
6:51 AM31 °FClear.10 mph69%30.21 "Hg10 mi
5:51 AM32 °FClear.7 mph66%30.19 "Hg10 mi
4:51 AM32 °FClear.10 mph66%30.17 "Hg10 mi
3:51 AM33 °FClear.14 mph66%30.16 "Hg10 mi
2:51 AM34 °FMostly cloudy.13 mph73%30.15 "Hg10 mi
1:51 AM34 °FOvercast.13 mph82%30.14 "Hg10 mi
12:51 AM32 °FPassing clouds.6 mph85%30.12 "Hg10 mi
11:51 PM
Nov 27
32 °FPassing clouds.5 mph85%30.14 "Hg10 mi
10:51 PM30 °FClear.6 mph85%30.14 "Hg10 mi
9:51 PM33 °FClear.9 mph82%30.14 "Hg10 mi
8:51 PM32 °FClear.6 mph82%30.12 "Hg10 mi
7:51 PM33 °FPassing clouds.7 mph78%30.12 "Hg10 mi
6:51 PM34 °FClear.10 mph79%30.11 "Hg10 mi
5:51 PM34 °FPassing clouds.6 mph76%30.09 "Hg10 mi
4:51 PM35 °FClear.9 mph75%30.07 "Hg10 mi
3:51 PM39 °FPassing clouds.12 mph62%30.05 "Hg10 mi
2:51 PM41 °FScattered clouds.12 mph62%30.04 "Hg10 mi
1:51 PM41 °FOvercast.9 mph62%30.04 "Hg10 mi
12:51 PM41 °FOvercast.13 mph65%30.03 "Hg10 mi
11:51 AM40 °FOvercast.9 mph68%30.04 "Hg10 mi
10:51 AM38 °FOvercast.9 mph73%30.05 "Hg10 mi
9:51 AM38 °FOvercast.12 mph76%30.05 "Hg10 mi
Weather by CustomWeather, © 2014

See weather overviewHow to use our weather pages